Regional Weather Roundup
Issued by NWS Midland/Odessa, TX

Skip options and go directly to product.
Home | Oldest Version | Previous Version | Current Version | All | Text Only | Save Text | Print | Product List | Glossary On

Skip product version selection by date and time.   
981
ASUS44 KMAF 241310
RWRMAF
MIDLAND AREA WEATHER ROUNDUP
NATIONAL WEATHER SERVICE MIDLAND TX
800 AM CDT THU APR 24 2014

...IN SOUTHWEST TEXAS AND SOUTHEAST NEW MEXICO...

CITY           SKY/WX    TMP DP  RH WIND       PRES   REMARKS
ALPINE         CLEAR     63  20  18 CALM      30.09R
ANDREWS        FAIR      59  20  22 NW14      29.95R
ARTESIA        CLEAR     54  14  20 N14G21    30.01R
BIG SPRING     SUNNY     59  47  65 S7        29.92R
CARLSBAD       CLEAR     57  21  24 W13       29.99R
DRYDEN           N/A     65  59  81 NW7       29.89R
FORT STOCKTON  CLEAR     64  26  23 W8        29.96R
GUAD PASS      CLEAR     58  14  17 W5        30.08R
HOBBS          CLEAR     57  12  17 W20       29.98R
MARFA          PTCLDY    55  18  22 NW8       30.07R
MIDLAND AIRPK  CLEAR     62  28  26 NW10      29.93R
MIDLAND INTL   CLEAR     61  31  32 NW14      29.92R
ODESSA           N/A    N/A N/A N/A MISG      29.94R
PECOS          CLEAR     56  34  42 W9        29.96R
PRESIDIO       FAIR      71  23  16 CALM      29.96R
SEMINOLE       CLEAR     56  19  23 NW14      29.96R
SNYDER         SUNNY     62  30  30 W8        29.88R
WINK           CLEAR     60  25  26 N12       29.94R
$$
...OTHER STATIONS IN TEXAS...

CITY           SKY/WX    TMP DP  RH WIND       PRES   REMARKS
ABILENE        SUNNY     66  60  81 S6        29.80R HAZE
AMARILLO       MOSUNNY   49  37  63 N24G30    29.98R
AUSTIN         CLOUDY    67  65  93 S8        29.81S
BROWNSVILLE    MOSUNNY   74  71  91 S16G28    29.78R
CORPUS CHRISTI PTSUNNY   73  68  84 SE12      29.82R
DALLAS FTW     PTSUNNY   68  61  78 S20G29    29.77F
DEL RIO        SUNNY     68  62  81 E5        29.82R
EL PASO        PTCLDY    60  14  16 E3        30.01R
HOUSTON INT    PTSUNNY   71  66  84 S8        29.88R
LUBBOCK        MOSUNNY   54  32  43 N23G35    29.94R BLWGDUST
SAN ANGELO     MOSUNNY   68  61  78 SW7       29.84R
SAN ANTONIO    CLOUDY    69  64  84 S12       29.83R
WACO           PTSUNNY   66  63  90 S13       29.81R
WICHITA FALLS  NOT AVBL
$$
...OTHER LOCATIONS IN NEW MEXICO...

CITY           SKY/WX    TMP DP  RH WIND       PRES   REMARKS
ALAMAGORDO     CLEAR     55  10  16 NE7       30.03R
ALBUQUERQUE    CLEAR     47  10  22 N16       30.10R
CANNON AFB     CLEAR     47  31  54 N14       30.03R HAZE
CLOVIS         CLEAR     46  30  53 N15       30.06R
HOLLOMAN AFB   CLEAR     44  12  27 NW8       30.03R WCI  39
ROSWELL        CLEAR     57  12  17 NW14      30.02R
RUIDOSO        CLEAR     45   9  23 NW7G17    30.14R
SANTA FE       CLEAR     38   7  27 N10       30.09R WCI  31
TRUTH OR CONSE CLEAR     47  12  24 N6        30.08R
TUCUMCARI      CLEAR     50  35  56 N16       30.02R
$$

USA.gov is the U.S. government's official web portal to all federal, state and local government web resources and services.